Weather History for KIKW - June, 2012

Change the Weather History Date:

Wednesday, June 20, 2012

  Actual Average (KMBS) Record (KMBS)
Temperature  
Mean Temperature 81 °F 69 °F  
Max Temperature 92 °F 79 °F 94 °F (1998)
Min Temperature 70 °F 58 °F 46 °F (2003)
Degree Days  
Heating Degree Days 0    
Month to date heating degree days  
Since 1 June heating degree days  
Since 1 July heating degree days  
Cooling Degree Days 16    
Month to date cooling degree days  
Year to date cooling degree days  
Since 1 June cooling degree days  
Growing Degree Days 31 (Base 50)    
Moisture  
Dew Point 64 °F    
Average Humidity 57    
Maximum Humidity 91    
Minimum Humidity 36    
Precipitation  
Precipitation 0.00 in 0.10 in 0.77 in (1997)
Month to date precipitation 1.98  
Year to date precipitation 13.63  
Snow  
Snow 0.00 in - - ()
Month to date snowfall  
Since 1 June snowfall  
Since 1 July snowfall  
Snow Depth -    
Sea Level Pressure  
Sea Level Pressure 29.97 in    
Wind  
Wind Speed 6 mph (SSW)    
Max Wind Speed 20 mph    
Max Gust Speed 26 mph    
Visibility 10 miles    
Events      
T = Trace of Precipitation, MM = Missing Value Source: NWS Daily Summary

Daily Weather History Graph

Daily Weather History Graph

Search for Another Location

Airport or City:

Trip Planner

Search our weather history database for the weather conditions in past years. The results will help you decide how hot, cold, wet, or windy it might be!

Date:

Astronomy

Jun. 20, 2012 Rise Set
Actual Time 5:55 AM EDT 9:22 PM EDT
Civil Twilight 5:19 AM EDT 9:58 PM EDT
Nautical Twilight 4:32 AM EDT 10:45 PM EDT
Astronomical Twilight 3:32 AM EDT 11:45 PM EDT
Moon 6:56 AM EDT (6/20) 10:04 PM EDT (6/20)
Length of Visible Light 16h 38m
Length of Day
15h 26m
New Moon, 1% of the Moon is Illuminated
Jun 20
New Moon
Jun 26
First Quarter
Jul 3
Full
Jul 10
Last Quarter
Jul 19
New

Hourly Weather History & Observations

Time (EDT) Temp. Heat Index Dew Point Humidity Pressure Visibility Wind Dir Wind Speed Gust Speed Precip Events Conditions
12:12 AM 72.5 °F - 69.3 °F 90% 29.98 in 10.0 mi Calm Calm - N/A   Clear
12:31 AM 71.8 °F - 68.7 °F 90% 29.98 in 10.0 mi Calm Calm - N/A   Clear
12:51 AM 72.0 °F - 69.1 °F 91% 29.98 in 10.0 mi Calm Calm - N/A   Clear
1:11 AM 72.5 °F - 68.9 °F 88% 29.98 in 10.0 mi Calm Calm - N/A   Clear
1:31 AM 73.9 °F - 68.4 °F 83% 29.99 in 10.0 mi Calm Calm - N/A   Clear
1:51 AM 70.9 °F - 67.6 °F 89% 29.99 in 10.0 mi Calm Calm - N/A   Clear
2:11 AM 70.3 °F - 67.6 °F 91% 30.00 in 10.0 mi Calm Calm - N/A   Clear
2:31 AM 70.7 °F - 68.0 °F 91% 30.00 in 10.0 mi Calm Calm - N/A   Clear
2:51 AM 71.2 °F - 67.1 °F 87% 29.99 in 10.0 mi Calm Calm - N/A   Clear
3:11 AM 72.9 °F - 67.1 °F 82% 29.99 in 10.0 mi Calm Calm - N/A   Clear
3:31 AM 73.4 °F - 66.9 °F 80% 29.99 in 10.0 mi Calm Calm - N/A   Clear
3:51 AM 73.0 °F - 66.6 °F 80% 29.99 in 10.0 mi SSW 3.5 mph - N/A   Clear
4:11 AM 72.1 °F - 66.4 °F 82% 29.99 in 10.0 mi South 3.5 mph - N/A   Clear
4:31 AM 72.1 °F - 66.2 °F 82% 29.99 in 10.0 mi South 3.5 mph - N/A   Clear
4:51 AM 72.5 °F - 65.8 °F 80% 29.99 in 10.0 mi South 3.5 mph - N/A   Clear
5:11 AM 72.0 °F - 65.5 °F 80% 30.00 in 10.0 mi South 3.5 mph - N/A   Clear
5:31 AM 71.8 °F - 64.6 °F 78% 30.01 in 10.0 mi South 3.5 mph - N/A   Clear
5:51 AM 71.6 °F - 64.4 °F 78% 30.01 in 10.0 mi SSW 3.5 mph - N/A   Clear
6:11 AM 71.6 °F - 64.0 °F 77% 30.02 in 10.0 mi South 3.5 mph - N/A   Clear
6:31 AM 71.8 °F - 63.9 °F 76% 30.02 in 10.0 mi South 3.5 mph - N/A   Clear
6:51 AM 72.5 °F - 63.9 °F 74% 30.02 in 10.0 mi SSW 4.6 mph - N/A   Clear
7:11 AM 73.9 °F - 64.2 °F 72% 30.03 in 10.0 mi SSW 4.6 mph - N/A   Clear
7:32 AM 75.4 °F - 64.4 °F 69% 30.03 in 10.0 mi SSW 4.6 mph - N/A   Clear
7:51 AM 76.5 °F - 64.0 °F 65% 30.03 in 10.0 mi SSW 9.2 mph - N/A   Clear
8:11 AM 77.5 °F - 64.4 °F 64% 30.03 in 10.0 mi SSW 9.2 mph - N/A   Clear
8:33 AM 79.2 °F - 64.8 °F 61% 30.03 in 10.0 mi SSW 10.4 mph - N/A   Clear
8:51 AM 81.0 °F 82.7 °F 64.9 °F 58% 30.03 in 10.0 mi SSW 8.1 mph - N/A   Scattered Clouds
9:11 AM 81.0 °F 82.7 °F 65.1 °F 58% 30.03 in 10.0 mi SSW 8.1 mph - N/A   Mostly Cloudy
9:31 AM 81.9 °F 83.4 °F 64.0 °F 55% 30.03 in 10.0 mi SW 10.4 mph 18.4 mph N/A   Overcast
9:51 AM 82.8 °F 84.2 °F 64.2 °F 53% 30.03 in 10.0 mi SW 10.4 mph 18.4 mph N/A   Mostly Cloudy
10:12 AM 83.7 °F 85.1 °F 64.4 °F 52% 30.03 in 10.0 mi SW 13.8 mph 18.4 mph N/A   Scattered Clouds
10:31 AM 84.6 °F 86.1 °F 64.4 °F 51% 30.03 in 10.0 mi SW 10.4 mph 17.3 mph N/A   Clear
10:51 AM 85.5 °F 86.8 °F 64.2 °F 49% 30.03 in 10.0 mi WSW 13.8 mph 19.6 mph N/A   Clear
11:12 AM 86.2 °F 87.3 °F 63.7 °F 47% 30.02 in 10.0 mi SSW 11.5 mph - N/A   Clear
11:31 AM 86.4 °F 86.5 °F 61.7 °F 43% 30.02 in 10.0 mi SW 17.3 mph 24.2 mph N/A   Clear
11:51 AM 87.4 °F 88.0 °F 62.2 °F 43% 30.01 in 10.0 mi WSW 12.7 mph 21.9 mph N/A   Clear
12:11 PM 87.4 °F 88.0 °F 62.2 °F 43% 30.01 in 10.0 mi SSW 13.8 mph 21.9 mph N/A   Clear
12:51 PM 89.2 °F 89.9 °F 63.0 °F 41% 30.01 in 10.0 mi SW 12.7 mph 20.7 mph N/A   Clear
1:12 PM 89.4 °F 89.8 °F 62.4 °F 40% 30.01 in 10.0 mi WSW 11.5 mph 20.7 mph N/A   Clear
1:31 PM 89.4 °F 89.8 °F 62.4 °F 40% 30.00 in 10.0 mi SW 12.7 mph 25.3 mph N/A   Clear
1:51 PM 89.8 °F 90.0 °F 62.1 °F 39% 30.00 in 10.0 mi WSW 12.7 mph 21.9 mph N/A   Clear
2:11 PM 90.5 °F 91.1 °F 62.1 °F 39% 29.99 in 10.0 mi SW 17.3 mph 23.0 mph N/A   Clear
2:31 PM 91.6 °F 92.0 °F 62.2 °F 37% 29.98 in 10.0 mi SW 9.2 mph 24.2 mph N/A   Clear
2:52 PM 91.6 °F 91.6 °F 61.2 °F 36% 29.98 in 10.0 mi SW 12.7 mph 26.5 mph N/A   Clear
3:11 PM 91.6 °F 92.0 °F 61.5 °F 37% 29.97 in 10.0 mi SW 12.7 mph 18.4 mph N/A   Clear
3:31 PM 91.6 °F 91.6 °F 61.0 °F 36% 29.96 in 10.0 mi SW 19.6 mph 24.2 mph N/A   Clear
3:52 PM 92.3 °F 93.1 °F 62.2 °F 37% 29.96 in 10.0 mi SW 15.0 mph 20.7 mph N/A   Clear
4:11 PM 91.6 °F 92.0 °F 61.5 °F 37% 29.95 in 10.0 mi SW 13.8 mph 24.2 mph N/A   Clear
4:32 PM 92.1 °F 92.4 °F 61.3 °F 36% 29.95 in 10.0 mi SW 16.1 mph 25.3 mph N/A   Clear
4:51 PM 92.1 °F 92.4 °F 61.7 °F 36% 29.95 in 10.0 mi SSW 13.8 mph 20.7 mph N/A   Scattered Clouds
5:11 PM 91.9 °F 92.2 °F 61.7 °F 36% 29.94 in 10.0 mi SSW 17.3 mph 21.9 mph N/A   Scattered Clouds
5:32 PM 91.6 °F 92.0 °F 61.5 °F 37% 29.94 in 10.0 mi SW 11.5 mph 24.2 mph N/A   Clear
5:51 PM 91.6 °F 92.0 °F 61.9 °F 37% 29.93 in 10.0 mi SW 13.8 mph - N/A   Clear
6:11 PM 91.6 °F 92.0 °F 61.5 °F 37% 29.92 in 10.0 mi SW 15.0 mph 23.0 mph N/A   Clear
6:31 PM 91.6 °F 92.0 °F 62.2 °F 37% 29.92 in 10.0 mi SW 13.8 mph 17.3 mph N/A   Clear
6:51 PM 91.2 °F 91.8 °F 62.6 °F 38% 29.91 in 10.0 mi SW 13.8 mph 17.3 mph N/A   Clear
7:12 PM 90.5 °F 91.1 °F 62.4 °F 39% 29.90 in 10.0 mi SW 9.2 mph 18.4 mph N/A   Clear
7:31 PM 89.8 °F 90.4 °F 62.8 °F 40% 29.89 in 10.0 mi SSW 11.5 mph - N/A   Clear
7:51 PM 89.6 °F 89.8 °F 61.7 °F 39% 29.88 in 10.0 mi SSW 11.5 mph 19.6 mph N/A   Clear
8:12 PM 88.7 °F 88.8 °F 61.7 °F 40% 29.87 in 10.0 mi SSW 13.8 mph 17.3 mph N/A   Clear
8:31 PM 87.4 °F 87.7 °F 61.7 °F 42% 29.87 in 10.0 mi SSW 9.2 mph - N/A   Clear
8:52 PM 86.2 °F 86.8 °F 62.2 °F 45% 29.87 in 10.0 mi SSW 4.6 mph - N/A   Clear
9:11 PM 84.7 °F 85.4 °F 62.4 °F 47% 29.87 in 10.0 mi SSW 5.8 mph - N/A   Clear
9:31 PM 83.7 °F 84.5 °F 62.4 °F 49% 29.88 in 10.0 mi SSW 4.6 mph - N/A   Clear
9:52 PM 82.9 °F 83.7 °F 61.7 °F 49% 29.88 in 10.0 mi SSW 5.8 mph - N/A   Clear
10:11 PM 82.4 °F 83.0 °F 61.7 °F 49% 29.89 in 10.0 mi SSW 5.8 mph - N/A   Clear
10:32 PM 81.1 °F 82.1 °F 61.9 °F 52% 29.90 in 10.0 mi SSW 5.8 mph - N/A   Clear
10:51 PM 80.1 °F 81.2 °F 61.9 °F 54% 29.90 in 10.0 mi SW 4.6 mph - N/A   Clear
11:11 PM 79.2 °F - 61.9 °F 55% 29.90 in 10.0 mi SW 4.6 mph - N/A   Clear
11:32 PM 79.2 °F - 61.7 °F 55% 29.90 in 10.0 mi SSW 5.8 mph - N/A   Clear
11:52 PM 79.5 °F - 61.2 °F 53% 29.89 in 10.0 mi SSW 6.9 mph - N/A   Clear